Theta_e
331 329 327 324 314 316 312 313 321 319 318 325 326 324 326 332 330 325 350 346 349 354 359 361 365 366 367 367 365 364 363 362 361 362 361 361 361 361 360 360 358 355 351 348 347 347 349 350 350
324 325 324 320 312 310 312 318 318 321 322 326 326 326 326 328 340 342 343 345 350 354 358 359 364 366 366 366 365 364 363 362 361 361 361 361 361 361 359 358 356 352 348 346 345 344 345 346 348
324 324 317 316 313 310 312 319 320 321 323 325 323 327 329 329 339 343 347 347 351 353 355 361 364 365 365 364 365 364 363 362 362 361 361 361 361 361 360 357 354 350 347 345 344 343 342 341 341
320 320 318 311 311 316 316 323 322 321 322 325 325 323 330 336 339 346 345 347 350 351 352 360 363 363 364 362 364 364 363 363 362 362 361 361 361 359 358 355 354 351 347 345 344 343 342 340 339
320 317 311 311 312 317 321 324 322 321 322 322 324 323 327 342 347 344 343 347 347 349 352 360 362 363 364 364 363 363 363 362 362 362 361 360 358 357 355 354 351 349 348 346 345 343 342 341 340
312 315 307 308 312 317 320 324 322 322 324 323 321 323 329 346 346 344 344 346 347 349 355 358 360 361 361 362 362 362 361 361 361 360 360 359 357 355 353 352 350 349 348 346 345 344 343 341 341
310 310 307 309 311 315 316 322 320 321 322 322 325 320 330 341 347 347 348 347 346 350 355 356 354 359 361 361 360 360 360 360 360 359 358 358 356 354 353 351 350 348 348 346 345 345 344 343 342
312 311 308 309 309 311 316 318 320 320 320 324 326 319 322 339 346 348 349 346 346 348 352 354 353 352 353 356 360 359 359 359 359 358 357 356 354 353 353 353 352 350 348 347 346 345 344 345 346
314 306 304 308 309 311 316 313 319 320 318 321 324 323 327 339 343 344 345 344 344 345 350 352 350 349 346 345 354 357 357 357 358 357 357 355 346 349 350 348 354 351 350 348 348 348 348 348 348
309 304 306 312 314 313 314 313 316 314 315 317 320 322 327 331 337 338 339 340 341 343 346 349 349 349 345 340 351 349 351 352 351 350 354 347 345 349 344 351 354 352 352 351 351 351 350 348 340
309 304 308 310 313 315 314 314 316 313 311 316 317 322 323 322 330 334 336 338 340 344 346 347 354 358 348 342 347 342 343 345 347 349 354 352 345 348 346 349 349 349 351 345 349 349 347 344 344
305 309 309 310 311 310 312 315 313 314 314 318 318 319 319 320 321 326 333 334 338 342 346 349 351 358 358 345 346 345 343 345 345 346 357 356 348 354 351 344 346 352 348 350 348 345 347 350 352
307 308 309 311 310 310 310 308 309 310 314 316 317 317 317 319 322 325 328 335 338 340 345 349 353 359 363 366 349 351 349 347 348 349 355 351 348 355 351 352 346 347 346 346 346 345 347 351 353
309 308 309 310 310 310 307 307 309 310 314 313 314 315 317 319 321 324 325 330 337 342 344 349 352 364 360 361 366 357 359 351 350 349 353 360 353 359 349 352 348 347 346 344 343 343 344 346 347
309 304 307 308 308 308 310 305 305 311 312 311 312 313 315 318 319 320 324 327 337 342 348 353 356 360 364 363 363 361 353 352 351 350 361 361 361 363 357 349 349 346 350 350 347 346 347 343 345
304 305 300 306 307 308 307 300 308 312 311 310 311 313 314 316 318 321 323 327 330 333 345 353 350 354 364 365 363 358 357 355 354 355 358 363 361 363 362 350 351 352 350 347 345 342 340 338 340
303 298 300 302 307 307 305 302 308 311 310 310 311 312 313 314 317 321 322 324 329 335 341 348 355 353 359 366 361 362 364 357 356 357 357 364 359 359 357 352 352 359 352 348 346 344 345 342 345
298 299 301 301 305 305 303 303 307 310 310 310 311 312 313 314 315 319 322 324 325 330 338 348 353 363 364 359 363 358 356 357 356 355 356 363 361 360 363 356 357 356 348 348 347 351 348 347 347
302 301 300 303 306 303 303 303 305 309 309 309 310 311 313 314 317 319 321 323 324 327 332 340 348 362 360 354 352 352 350 352 353 354 360 360 361 360 363 355 354 357 353 355 358 354 355 347 353
300 299 299 302 305 304 303 303 306 308 308 310 310 311 312 314 316 317 319 322 323 326 330 334 340 352 356 355 358 355 355 351 352 354 358 359 360 359 358 358 351 358 354 359 362 357 350 350 353
300 298 299 299 303 304 302 300 302 306 309 310 311 313 313 313 314 316 317 319 321 324 328 330 334 341 352 360 358 358 357 357 350 351 351 355 355 354 357 357 355 355 356 349 362 359 356 343 348
296 302 301 300 298 294 303 293 302 305 306 308 309 310 311 313 314 316 317 318 320 321 324 327 333 336 339 352 350 356 349 345 346 348 350 353 356 354 353 356 356 357 350 352 355 355 354 353 340
299 303 301 301 299 298 298 295 299 305 303 306 309 310 312 313 315 315 315 317 320 322 323 326 332 333 338 343 352 345 350 347 347 349 355 359 359 357 353 355 356 359 351 356 355 355 354 345 340
304 301 301 301 299 292 297 297 298 301 304 306 309 310 312 313 313 315 317 319 320 322 323 327 329 337 336 338 342 350 352 352 346 350 347 347 350 354 357 353 356 359 357 357 354 355 357 350 346
302 299 292 291 292 291 301 298 300 306 307 308 308 310 312 314 314 315 316 318 320 321 323 325 327 329 332 333 335 339 345 352 352 354 347 348 345 349 357 358 358 356 359 358 355 357 353 351 346
301 300 293 288 290 294 301 296 301 308 309 309 310 311 312 313 314 315 316 317 318 320 322 323 324 326 329 331 332 338 341 335 339 347 348 345 346 347 355 358 358 357 355 353 355 349 347 351 349
298 295 302 296 298 293 296 301 306 308 308 309 309 310 311 312 313 314 315 317 318 319 321 322 323 325 328 330 333 334 336 340 339 346 351 345 350 348 349 356 354 353 353 354 357 347 352 352 351
302 304 294 296 288 287 293 296 297 303 304 307 308 309 311 312 313 313 314 315 317 318 320 321 323 323 325 328 331 331 333 334 340 344 347 349 350 347 343 347 347 349 350 349 353 347 349 348 344
299 297 299 298 295 289 289 294 304 305 306 306 307 309 310 311 311 312 312 314 316 317 318 320 320 322 322 324 327 331 332 332 335 336 339 343 346 341 341 340 342 342 341 344 346 345 339 340 344
303 299 299 294 292 296 294 295 306 307 309 307 308 309 310 309 309 310 312 313 314 315 316 318 320 321 321 323 323 326 327 327 326 327 333 335 335 335 333 332 330 330 330 335 335 334 332 331 331
Wind_Speed
19 16 9 9 10 10 18 22 7 5 4 4 5 10 12 19 17 7 12 8 19 21 20 19 15 14 13 13 14 14 14 14 14 13 13 13 12 12 11 10 10 9 10 9 9 9 9 8 7
13 16 10 10 13 16 15 22 10 11 3 2 5 7 9 15 14 13 13 15 20 20 19 18 15 14 12 13 13 14 14 14 14 13 12 12 12 11 10 9 8 8 9 8 8 8 7 7 7
16 16 11 13 15 19 13 8 9 7 5 12 5 6 7 7 5 9 18 16 20 19 19 18 16 15 13 13 12 12 13 14 13 12 12 11 10 10 8 8 7 8 8 7 7 7 6 5 4
9 11 10 13 23 25 4 12 5 8 6 4 2 7 8 5 2 7 15 17 18 19 19 20 15 15 14 15 12 13 14 13 13 12 11 10 11 10 8 7 7 7 7 6 5 5 5 4 3
10 10 14 18 23 22 12 8 6 12 4 7 8 8 6 7 9 16 14 16 16 17 18 18 17 15 15 15 13 12 14 13 12 11 11 10 10 9 8 7 7 7 6 6 5 4 3 3 2
12 12 15 19 21 23 6 7 12 11 10 4 7 4 13 10 12 14 13 14 15 16 17 17 16 15 15 14 14 13 12 12 11 11 11 11 11 9 7 6 5 5 5 5 5 4 4 3 4
18 15 18 22 19 19 9 12 10 14 12 7 5 7 12 13 11 12 12 13 14 15 15 16 17 15 14 14 14 14 14 12 12 11 9 9 9 9 8 6 4 4 4 4 5 5 5 5 6
15 16 24 21 17 15 9 14 15 7 4 6 1 7 8 15 9 11 12 13 14 15 16 16 15 17 15 14 13 13 14 13 12 12 12 11 9 8 9 7 8 6 5 5 5 5 6 7 8
14 16 19 23 24 8 8 10 17 6 10 4 3 6 7 8 8 10 10 12 13 13 15 16 16 16 15 15 13 13 13 12 12 12 11 11 9 11 12 10 11 9 6 6 6 7 7 8 11
16 17 25 21 19 14 8 14 14 7 13 9 8 5 7 5 8 10 11 11 13 15 16 15 16 16 15 13 15 14 13 11 11 12 12 10 10 9 10 11 13 9 7 8 9 9 9 10 10
20 20 20 22 10 8 13 14 12 9 13 10 10 13 11 4 5 9 11 13 14 15 13 15 13 14 15 13 11 8 9 9 9 13 11 10 9 8 7 7 8 8 11 8 11 10 9 11 7
19 20 23 14 8 10 16 14 12 16 14 14 2 7 9 9 10 12 13 11 12 13 14 15 17 12 13 11 11 12 10 10 9 12 12 9 7 7 7 7 8 8 9 8 6 5 4 5 7
17 18 16 18 11 12 14 19 17 14 15 14 13 13 12 14 13 10 11 14 8 15 14 14 16 14 12 10 11 10 11 10 11 11 12 10 10 7 8 6 7 7 8 7 6 5 5 5 6
13 17 15 14 16 16 17 17 16 17 15 12 18 15 15 14 13 13 11 12 11 7 11 13 15 15 14 13 10 10 8 11 11 11 12 13 10 7 9 8 8 7 7 7 6 6 5 5 6
17 12 15 14 16 16 14 18 20 16 9 13 14 13 15 13 9 11 10 10 12 9 9 10 11 15 15 15 13 9 11 12 11 11 12 14 12 9 10 9 9 9 7 7 6 6 7 8 7
14 15 16 19 18 16 14 16 18 21 18 15 15 15 12 13 14 12 9 6 8 8 13 12 12 15 15 13 11 11 10 11 11 11 10 14 14 13 12 11 11 10 9 10 9 9 8 8 7
13 15 19 17 9 12 18 16 20 6 7 11 15 12 13 14 15 10 11 9 8 9 10 12 13 15 16 14 12 12 13 12 11 10 11 14 17 19 14 13 12 13 11 11 10 10 8 8 7
15 17 16 14 16 12 14 17 17 11 12 14 14 13 12 12 13 11 10 8 5 5 6 9 9 12 11 11 10 11 12 12 12 12 12 14 14 17 14 10 9 9 9 9 9 9 9 8 9
12 14 11 12 12 9 13 15 16 14 16 15 14 14 13 14 12 12 8 7 6 3 4 7 10 10 11 11 12 12 13 13 13 13 14 16 15 17 13 11 10 10 11 11 9 9 9 8 7
9 15 15 13 10 11 14 17 17 16 16 16 15 16 14 11 13 13 11 10 8 6 4 4 8 9 10 11 10 11 11 13 13 13 14 16 17 16 14 13 12 13 10 9 8 8 8 8 8
16 17 15 15 9 12 14 17 18 17 17 14 16 15 13 13 12 11 11 7 10 10 8 6 4 7 10 12 9 9 10 9 11 13 13 14 17 16 16 15 14 12 11 10 9 10 11 9 6
17 17 14 13 12 14 18 14 15 17 19 20 17 15 17 17 12 12 10 10 11 10 11 9 7 7 7 10 12 14 12 13 13 13 13 13 16 17 17 17 15 13 11 11 11 10 9 9 8
15 10 8 13 15 17 19 14 14 15 16 17 15 15 12 10 10 9 6 6 8 7 8 10 8 7 8 8 10 12 15 13 12 13 13 12 12 17 18 16 15 12 11 10 11 11 13 11 12
14 11 12 15 14 17 19 19 15 14 12 14 12 12 12 10 1 5 6 8 9 8 8 9 9 10 10 10 11 12 15 15 13 13 12 12 12 12 16 17 14 13 12 12 11 11 11 11 11
12 13 11 15 16 15 19 19 14 11 4 8 5 4 5 6 5 6 6 8 7 9 7 7 7 9 11 11 11 13 13 14 16 15 13 14 11 15 19 16 14 13 13 11 11 9 11 12 11
17 18 14 18 16 16 8 9 7 3 3 3 2 2 3 1 7 6 8 7 10 7 10 11 11 11 11 12 13 11 12 11 12 15 15 13 13 13 3 14 15 14 13 13 11 10 11 11 11
20 21 20 23 21 18 18 25 21 14 18 15 12 5 5 2 5 8 8 10 10 11 10 8 9 12 10 11 11 12 12 12 13 15 12 12 15 12 9 15 19 14 13 13 12 10 11 11 11
19 13 10 13 16 23 16 19 13 9 3 5 10 6 5 4 10 12 13 12 10 12 12 14 8 9 12 9 10 10 11 13 14 13 14 13 13 14 4 15 12 10 12 13 10 10 11 10 10
14 16 19 16 16 11 14 11 10 6 1 4 4 3 6 9 12 15 16 14 11 10 14 13 10 10 7 10 9 8 9 10 12 11 9 13 13 14 8 7 12 14 13 11 10 9 10 11 10
21 17 20 11 9 14 13 15 10 6 10 3 7 9 10 12 13 14 15 16 13 12 10 13 9 10 12 9 10 10 10 9 7 9 8 11 12 11 14 14 15 13 8 11 11 12 10 12 10
Wind_Direction
281 270 276 255 240 232 245 235 266 146 191 188 313 259 335 49 20 44 124 132 131 132 145 146 136 141 144 152 154 149 148 149 150 152 150 146 146 137 141 144 138 136 128 126 127 127 124 122 123
291 285 261 262 235 243 231 236 153 242 29 136 202 216 249 74 57 106 123 137 136 136 151 152 138 139 144 147 153 151 151 151 151 152 152 151 144 141 146 147 141 136 130 134 135 133 131 131 134
261 263 270 226 235 247 240 226 163 92 218 223 191 292 51 68 60 116 110 139 134 145 157 139 140 138 142 151 146 149 149 149 150 153 152 150 140 138 142 143 142 139 140 143 143 140 134 133 144
256 224 240 261 235 233 273 258 102 148 187 228 313 156 97 38 123 83 142 150 139 149 158 133 140 139 143 162 147 150 148 146 148 151 152 147 140 136 137 148 143 146 147 148 145 134 132 142 159
236 261 236 224 241 246 211 245 116 260 152 180 193 124 108 99 110 124 145 151 157 149 148 152 145 146 146 148 148 150 143 141 145 147 146 145 139 140 148 153 151 155 154 152 146 141 143 156 194
220 234 238 235 224 241 221 218 209 244 261 160 231 160 91 123 135 140 148 159 164 151 143 151 147 148 149 152 152 147 138 139 142 145 147 145 141 144 153 156 159 161 161 161 165 166 174 196 229
237 223 236 243 241 225 195 257 241 248 244 241 352 215 112 148 123 142 151 162 162 153 148 153 167 159 154 154 153 146 140 142 141 139 136 136 145 151 154 160 168 170 177 183 195 189 205 213 237
231 252 241 239 240 240 189 237 249 273 261 65 296 349 123 101 143 147 163 166 163 161 154 161 174 174 177 172 158 152 149 151 149 151 151 149 153 165 168 162 179 186 196 205 216 224 232 234 238
226 242 238 242 239 252 184 243 235 28 285 233 121 30 72 127 159 161 162 169 169 168 163 170 176 175 182 174 168 156 158 157 155 161 164 160 195 181 173 196 150 176 203 223 229 232 239 246 244
224 229 235 240 250 230 193 231 244 210 239 217 186 129 137 171 193 186 178 178 181 178 176 172 182 174 185 175 159 186 180 189 192 192 183 209 208 192 206 167 158 175 203 231 234 234 238 245 258
219 241 227 244 284 319 230 202 257 227 251 227 225 212 180 178 223 253 202 194 187 183 187 182 180 169 194 187 165 187 187 189 193 198 191 210 198 193 197 159 180 198 199 222 203 208 221 234 263
232 229 253 253 191 253 255 270 249 242 258 263 291 295 292 279 244 229 244 230 189 182 196 181 175 178 204 195 177 186 196 191 192 197 190 196 224 196 204 209 200 188 172 207 226 255 250 297 278
219 249 228 253 249 239 246 253 256 254 244 256 275 258 254 245 251 244 256 242 209 181 190 192 178 187 194 230 188 195 199 193 199 190 187 208 205 202 200 211 226 199 202 186 216 234 247 282 264
211 241 248 226 231 235 240 243 240 240 247 247 251 241 243 248 245 240 226 254 243 222 201 200 199 179 194 213 233 195 199 198 206 202 194 198 211 193 204 204 211 228 221 220 219 217 242 259 295
251 259 237 239 231 238 235 247 242 246 223 237 243 238 247 251 250 261 263 234 223 233 238 202 205 191 198 203 219 222 209 219 202 214 198 182 207 199 214 206 212 211 213 224 222 228 216 236 229
231 230 246 216 216 225 233 253 223 218 210 230 240 233 236 239 239 243 244 246 270 252 207 217 216 207 192 209 208 220 217 212 228 207 203 184 197 223 194 201 208 205 206 201 216 212 221 231 236
204 235 219 246 182 226 211 250 241 127 172 237 241 230 235 237 230 230 240 239 215 219 250 207 213 222 203 203 215 213 224 228 210 220 209 192 202 216 207 207 203 201 199 202 200 210 215 211 230
214 210 251 223 179 207 233 233 265 176 217 220 244 239 231 233 239 237 223 255 275 261 224 226 227 212 218 212 209 227 220 224 229 220 218 200 211 216 221 216 219 201 219 222 208 215 209 230 203
314 287 276 232 232 201 237 254 237 232 230 231 224 232 237 236 239 233 227 252 248 263 236 234 222 239 202 214 214 214 226 220 220 226 220 215 212 220 215 219 214 200 216 228 195 200 230 218 238
261 251 251 263 257 245 259 252 248 246 242 245 226 235 232 228 235 241 236 239 266 268 259 251 243 237 231 219 225 234 217 226 219 218 220 215 208 215 222 218 229 206 223 224 231 205 217 227 220
235 246 245 253 262 210 251 261 257 254 249 240 246 242 249 250 254 259 250 252 270 276 268 264 267 250 239 242 234 231 251 252 228 219 220 210 214 214 215 213 221 213 214 211 200 209 221 225 210
242 221 249 268 249 252 230 263 250 226 225 223 226 237 241 238 223 224 237 229 242 265 280 289 290 288 255 243 249 253 239 232 233 236 220 212 205 219 222 216 221 215 211 227 194 216 229 236 228
247 272 255 245 254 266 255 253 260 244 245 227 217 242 235 237 247 251 236 306 300 274 276 284 284 279 288 275 263 254 245 248 237 255 239 217 201 206 221 218 212 209 218 207 224 207 205 231 243
255 257 252 249 248 244 244 251 255 257 232 193 228 233 231 238 240 336 310 310 286 295 314 322 316 307 289 280 273 261 262 276 267 240 245 227 215 195 219 227 212 207 205 212 219 216 220 219 244
235 224 244 234 225 242 240 236 245 251 182 221 226 257 39 16 314 287 317 306 332 305 320 314 299 304 297 290 278 270 260 260 263 264 255 259 232 207 188 209 215 201 203 216 208 207 220 216 230
227 225 250 269 270 272 298 268 241 202 228 285 250 45 319 307 338 328 306 308 307 327 321 325 317 311 308 300 293 282 273 262 255 246 256 252 244 248 42 186 214 220 197 202 207 206 216 223 225
242 263 279 284 284 278 281 286 278 182 191 201 226 197 219 199 295 290 297 317 316 311 292 295 311 309 304 307 301 285 276 266 268 272 269 235 257 247 224 189 192 210 211 216 203 218 224 231 230
275 284 277 266 271 259 254 263 274 311 30 219 206 202 222 299 307 311 311 300 304 306 295 282 281 311 306 306 307 291 286 275 265 258 259 250 243 255 271 172 252 192 210 212 202 216 212 232 227
241 240 256 265 269 272 279 272 78 286 140 283 165 265 302 302 311 315 307 295 291 308 313 318 311 287 297 324 315 307 305 323 309 276 277 258 243 255 217 222 185 206 204 206 196 222 247 220 224
272 266 240 245 257 266 282 274 292 96 277 178 272 288 307 326 313 299 291 293 302 306 315 319 329 301 325 340 353 11 4 355 349 311 293 259 240 220 218 216 212 205 199 198 207 211 226 235 243